TimeCDT,TemperatureF,Dew PointF,Humidity,Sea Level PressureIn,VisibilityMPH,Wind Direction,Wind SpeedMPH,Gust SpeedMPH,PrecipitationIn,Events,Conditions,WindDirDegrees,DateUTC
12:13 AM,17.6,8.6,68,30.06,10.0,Calm,Calm,-,N/A,,Clear,0,2013-03-23 05:13:00
12:53 AM,14.0,6.8,73,30.05,10.0,Calm,Calm,-,N/A,,Clear,0,2013-03-23 05:53:00
1:12 AM,12.2,5.0,73,30.05,10.0,Calm,Calm,-,N/A,,Clear,0,2013-03-23 06:12:00
1:32 AM,12.2,5.0,73,30.05,10.0,Calm,Calm,-,N/A,,Clear,0,2013-03-23 06:32:00
1:53 AM,12.2,3.2,67,30.05,10.0,Calm,Calm,-,N/A,,Clear,0,2013-03-23 06:53:00
2:13 AM,10.4,3.2,73,30.05,10.0,Calm,Calm,-,N/A,,Clear,0,2013-03-23 07:13:00
2:32 AM,10.4,3.2,73,30.05,10.0,Calm,Calm,-,N/A,,Clear,0,2013-03-23 07:32:00
2:53 AM,10.4,3.2,73,30.05,10.0,Calm,Calm,-,N/A,,Clear,0,2013-03-23 07:53:00
3:32 AM,12.2,5.0,73,30.04,10.0,Calm,Calm,-,N/A,,Clear,0,2013-03-23 08:32:00
3:53 AM,10.4,3.2,73,30.04,10.0,Calm,Calm,-,N/A,,Clear,0,2013-03-23 08:53:00
4:13 AM,10.4,3.2,73,30.05,10.0,Calm,Calm,-,N/A,,Clear,0,2013-03-23 09:13:00
4:32 AM,8.6,1.4,73,30.06,10.0,Calm,Calm,-,N/A,,Clear,0,2013-03-23 09:32:00
4:53 AM,8.6,3.2,79,30.07,10.0,Calm,Calm,-,N/A,,Clear,0,2013-03-23 09:53:00
5:13 AM,8.6,3.2,79,30.08,10.0,Calm,Calm,-,N/A,,Scattered Clouds,0,2013-03-23 10:13:00
5:53 AM,10.4,5.0,79,30.08,10.0,Calm,Calm,-,N/A,,Overcast,0,2013-03-23 10:53:00
6:13 AM,12.2,5.0,73,30.08,10.0,Calm,Calm,-,N/A,,Overcast,0,2013-03-23 11:13:00
6:32 AM,12.2,6.8,79,30.07,10.0,Calm,Calm,-,N/A,,Overcast,0,2013-03-23 11:32:00
6:53 AM,10.4,3.2,73,30.08,10.0,Calm,Calm,-,N/A,,Mostly Cloudy,0,2013-03-23 11:53:00
7:13 AM,10.4,3.2,73,30.09,10.0,Calm,Calm,-,N/A,,Scattered Clouds,0,2013-03-23 12:13:00
7:32 AM,10.4,3.2,73,30.10,10.0,Calm,Calm,-,N/A,,Mostly Cloudy,0,2013-03-23 12:32:00
7:53 AM,10.4,3.2,73,30.10,10.0,Calm,Calm,-,N/A,,Mostly Cloudy,0,2013-03-23 12:53:00
8:13 AM,12.2,5.0,73,30.10,10.0,Calm,Calm,-,N/A,,Overcast,0,2013-03-23 13:13:00
8:32 AM,14.0,6.8,73,30.10,10.0,Calm,Calm,-,N/A,,Mostly Cloudy,0,2013-03-23 13:32:00
8:53 AM,15.8,8.6,73,30.10,10.0,Calm,Calm,-,N/A,,Mostly Cloudy,0,2013-03-23 13:53:00
9:13 AM,19.4,10.4,68,30.10,10.0,East,3.5,-,N/A,,Mostly Cloudy,80,2013-03-23 14:13:00
9:53 AM,21.2,12.2,68,30.12,10.0,Calm,Calm,-,N/A,,Clear,0,2013-03-23 14:53:00
10:13 AM,24.8,12.2,59,30.10,10.0,Calm,Calm,-,N/A,,Mostly Cloudy,0,2013-03-23 15:13:00
10:32 AM,26.6,14.0,59,30.11,10.0,Calm,Calm,-,N/A,,Unknown,0,2013-03-23 15:32:00
10:53 AM,28.4,14.0,55,30.11,10.0,Calm,Calm,-,N/A,,Unknown,0,2013-03-23 15:53:00
11:13 AM,28.4,14.0,55,30.11,10.0,Calm,Calm,-,N/A,,Clear,0,2013-03-23 16:13:00
11:32 AM,30.2,15.8,55,30.10,10.0,Calm,Calm,-,N/A,,Clear,0,2013-03-23 16:32:00
11:52 AM,30.2,15.8,55,30.10,10.0,North,3.5,-,N/A,,Clear,350,2013-03-23 16:52:00
12:13 PM,32.0,15.8,51,30.10,10.0,North,3.5,-,N/A,,Clear,360,2013-03-23 17:13:00
12:32 PM,33.8,15.8,48,30.10,10.0,Calm,Calm,-,N/A,,Unknown,0,2013-03-23 17:32:00
12:53 PM,33.8,15.8,48,30.10,10.0,Calm,Calm,-,N/A,,Unknown,0,2013-03-23 17:53:00
1:13 PM,33.8,14.0,44,30.09,10.0,East,3.5,-,N/A,,Clear,100,2013-03-23 18:13:00
1:32 PM,35.6,15.8,44,30.09,10.0,East,3.5,-,N/A,,Clear,90,2013-03-23 18:32:00
1:52 PM,35.6,14.0,41,30.09,10.0,Calm,Calm,-,N/A,,Clear,0,2013-03-23 18:52:00
2:13 PM,35.6,12.2,38,30.09,10.0,Calm,Calm,-,N/A,,Clear,0,2013-03-23 19:13:00
2:32 PM,35.6,12.2,38,30.08,10.0,Calm,Calm,-,N/A,,Clear,0,2013-03-23 19:32:00
2:52 PM,35.6,10.4,35,30.07,10.0,NE,3.5,-,N/A,,Clear,50,2013-03-23 19:52:00
3:13 PM,35.6,12.2,38,30.07,10.0,Calm,Calm,-,N/A,,Clear,0,2013-03-23 20:13:00
3:32 PM,37.4,12.2,36,30.06,10.0,NNE,3.5,-,N/A,,Clear,20,2013-03-23 20:32:00
3:52 PM,37.4,12.2,36,30.07,10.0,Calm,Calm,-,N/A,,Clear,0,2013-03-23 20:52:00
4:13 PM,35.6,15.8,44,30.06,10.0,North,4.6,-,N/A,,Clear,360,2013-03-23 21:13:00
4:32 PM,37.4,12.2,36,30.06,10.0,Calm,Calm,-,N/A,,Clear,0,2013-03-23 21:32:00
4:52 PM,37.4,12.2,36,30.05,10.0,Calm,Calm,-,N/A,,Clear,0,2013-03-23 21:52:00
5:13 PM,37.4,12.2,36,30.06,10.0,Calm,Calm,-,N/A,,Clear,0,2013-03-23 22:13:00
5:32 PM,37.4,12.2,36,30.06,10.0,Calm,Calm,-,N/A,,Clear,0,2013-03-23 22:32:00
5:53 PM,37.4,12.2,36,30.06,10.0,Calm,Calm,-,N/A,,Clear,0,2013-03-23 22:53:00
6:12 PM,37.4,10.4,33,30.06,10.0,Calm,Calm,-,N/A,,Clear,0,2013-03-23 23:12:00
6:32 PM,37.4,12.2,36,30.07,10.0,Calm,Calm,-,N/A,,Clear,0,2013-03-23 23:32:00
6:53 PM,35.6,12.2,38,30.07,10.0,Calm,Calm,-,N/A,,Clear,0,2013-03-23 23:53:00
7:12 PM,35.6,15.8,44,30.07,10.0,Calm,Calm,-,N/A,,Mostly Cloudy,0,2013-03-24 00:12:00
7:53 PM,33.8,14.0,44,30.07,10.0,Calm,Calm,-,N/A,,Overcast,0,2013-03-24 00:53:00
8:12 PM,33.8,15.8,48,30.07,10.0,Calm,Calm,-,N/A,,Overcast,0,2013-03-24 01:12:00
8:32 PM,32.0,19.4,60,30.07,10.0,Calm,Calm,-,N/A,,Overcast,0,2013-03-24 01:32:00
8:53 PM,33.8,15.8,48,30.08,10.0,Calm,Calm,-,N/A,,Overcast,0,2013-03-24 01:53:00
9:12 PM,32.0,17.6,55,30.08,10.0,Calm,Calm,-,N/A,,Overcast,0,2013-03-24 02:12:00
9:32 PM,30.2,21.2,69,30.08,10.0,Calm,Calm,-,N/A,,Overcast,0,2013-03-24 02:32:00
9:53 PM,30.2,21.2,69,30.08,10.0,Calm,Calm,-,N/A,,Overcast,0,2013-03-24 02:53:00
10:12 PM,32.0,17.6,55,30.08,10.0,Calm,Calm,-,N/A,,Overcast,0,2013-03-24 03:12:00
10:32 PM,32.0,17.6,55,30.08,10.0,Calm,Calm,-,N/A,,Overcast,0,2013-03-24 03:32:00
10:53 PM,30.2,19.4,64,30.08,10.0,Calm,Calm,-,N/A,,Overcast,0,2013-03-24 03:53:00
11:12 PM,30.2,17.6,60,30.07,10.0,Calm,Calm,-,N/A,,Overcast,0,2013-03-24 04:12:00
11:32 PM,32.0,17.6,55,30.07,10.0,Calm,Calm,-,N/A,,Overcast,0,2013-03-24 04:32:00
11:53 PM,30.2,17.6,60,30.07,10.0,Calm,Calm,-,N/A,,Mostly Cloudy,0,2013-03-24 04:53:00